Regional Weather Roundup
Issued by NWS Upton, NY

Current Version | Previous Version | Text Only | Print | Product List | Glossary Off
Versions: 1 2 3 4 5 6 7 8 9 10 11 12 13 14 15 16 17 18 19 20 21 22 23 24 25 26 27 28 29 30 31 32 33 34 35 36 37 38 39 40 41 42 43 44 45 46 47 48 49 50

000
ASUS41 KOKX 061508
RWROKX

REGIONAL WEATHER ROUNDUP
NATIONAL WEATHER SERVICE NEW YORK NY
1100 AM EDT WED MAY 06 2015

NOTE: "FAIR" INDICATES FEW OR NO CLOUDS BELOW 12,000 FEET WITH NO
SIGNIFICANT WEATHER AND/OR OBSTRUCTIONS TO VISIBILITY.

NYZ071-072-176-178-NJZ106-104-061600-
NEW YORK CITY METRO AREA


CITY           SKY/WX    TMP DP  RH WIND       PRES   REMARKS
CENTRAL PARK   CLOUDY    68  40  35 NE8       30.32F
LAGUARDIA APRT LGT RAIN  65  40  39 NE9       30.29F
KENNEDY INTL   CLOUDY    69  37  30 NE13      30.30S
NEWARK/LIBERTY LGT RAIN  68  41  37 N12       30.29S
BRNX BOT. GARD   N/A     64  41  42 NE7       30.30F
TETERBORO      CLOUDY    66  41  40 NE6       30.29F
$$

NYZ177-179-078>081-061600-
LONG ISLAND NEW YORK

CITY           SKY/WX    TMP DP  RH WIND       PRES   REMARKS
FARMINGDALE    CLOUDY    64  40  41 NE9       30.29S
ISLIP          CLOUDY    63  39  41 NE13      30.28S
SHIRLEY        LGT RAIN  63  41  44 N6        30.30S
WESTHAMPTON    CLOUDY    63  42  46 N7        30.30S
MONTAUK POINT    N/A     58  45  62 NE7       30.30S
$$

NYZ052-065-067-061600-
HUDSON VALLEY

CITY           SKY/WX    TMP DP  RH WIND       PRES   REMARKS
WHITE PLAINS   LGT RAIN  62  40  44 E7        30.30S
NEWBURGH       CLOUDY    61  43  51 CALM      30.33S
MONTGOMERY     CLOUDY    63  43  48 CALM      30.31F
POUGHKEEPSIE   CLOUDY    62  50  64 CALM      30.31F
ALBANY         PTSUNNY   71  29  21 E7        30.31F
$$

NJZ001-105-106-008-010-013-015-019>022-104-061600-
NEW JERSEY

CITY           SKY/WX    TMP DP  RH WIND       PRES   REMARKS
NEWARK/LIBERTY LGT RAIN  68  41  37 N12       30.29S
TETERBORO      CLOUDY    66  41  40 NE6       30.29F
CALDWELL       LGT RAIN  63  45  51 NE6       30.31S
MORRISTOWN     CLOUDY    64  45  48 NE9G15    30.31S
SOMERVILLE     CLOUDY    66  45  46 E6        30.28R
SUSSEX         CLOUDY    60  48  64 CALM      30.33S
ANDOVER          N/A     57  52  83 CALM      30.32S
TRENTON        PTSUNNY   71  40  32 E12G23    30.28S
MILLVILLE      SUNNY     74  54  49 E13       30.24S
ATLANTIC CITY  PTSUNNY   71  50  47 NE16G25   30.26R
WRIGHTSTOWN    NOT AVBL
TOMS RIVER     PTSUNNY   66  41  39 NE16G22   30.29R
BELMAR         PTSUNNY   66  39  37 NE12G21   30.28S
$$

PAZ047>061-062-071-061600-
EASTERN PENNSYLVANIA

CITY           SKY/WX    TMP DP  RH WIND       PRES   REMARKS
PHILADELPHIA   CLOUDY    66  47  50 NE13      30.28R
ALLENTOWN      CLOUDY    62  49  62 NE12      30.31R
SCRANTON       CLOUDY    56  51  84 VRB6      30.31S
$$

CTZ002-004>006-009-010-012-RIZ004-006-007-MAZ004-011-015-061600-
SOUTHERN NEW ENGLAND
 IN CT

CITY           SKY/WX    TMP DP  RH WIND       PRES   REMARKS
BRADLEY INTL   CLOUDY    67  37  33 N7        30.30F
HARTFORD       CLOUDY    64  38  38 N9        30.31R
DANBURY        CLOUDY    61  41  47 E5        30.32S
WTRBRY/OXFORD  CLOUDY    63  34  34 E7        30.33S
BRIDGEPORT     LGT RAIN  64  42  44 N7        30.30F
MERIDEN        CLOUDY    65  36  34 VRB3      30.31R
NEW HAVEN      CLOUDY    64  41  42 N6        30.30S
CHESTER        FAIR      63  36  36 NE5       30.31S
GROTON         CLOUDY    66  39  37 NE13      30.29R
WILLIMANTIC    CLOUDY    67  29  24 E7        30.31S

 IN RI

CITY           SKY/WX    TMP DP  RH WIND       PRES   REMARKS
PROVIDENCE     CLOUDY    66  36  32 E10       30.31S
BLOCK ISLAND   CLOUDY    55  45  67 NE10      30.30S
WESTERLY       CLOUDY    66  39  37 NE10      30.30S

 IN MA

CITY           SKY/WX    TMP DP  RH WIND       PRES   REMARKS
BOSTON         PTSUNNY   62  40  44 E7        30.31S
WORCESTER      CLOUDY    65  29  25 E9        30.32S
WESTFIELD      NOT AVBL
PROVINCETOWN   PTSUNNY   63  43  48 NE7       30.31F
NANTUCKET      CLOUDY    62  37  39 NE12      30.30R
$$

ANZ330-335-338-340-345-350-353-355-061600-
COASTAL MARINE OBSERVATIONS


STATION/POSITION TIME  SKY/WX   TEMP    WIND        PRES    VSBY  WAVE
                                AIR SEA DIR/SP/G                  HT/PER
                 (UTC)          (F)     (DEG/KT/KT) (MB)    (MI)  (FT/S)
NY HARB ENTRANCE 1450            58 53   30/ 12/ 12 1024.7          3/ 6
4S FIRE IS       1403               51                N/A           3/ 6
20S FIRE ISLAND  1450            51 49   40/  8/  8 1024.9          3/ 6
GREAT SOUTH BAY  1400            62 60   40/ 12/ 14   N/A
23SW MTP         1450            50 48   60/  8/ 10 1025.3          3/ 7
HUDSON CANYON    NOT AVBL
KINGS POINT      1400            57 51   20/  4/  5 1025.5
EASTERN LI SOUND 1400            53      30/  6/  8   N/A
ROBBINS REEF     1400            64      60/ 10/ 14 1024.6
$$


>>>>>>>>>>>>>>>>>>>>>>>>>>>> KEY <<<<<<<<<<<<<<<<<<<<<<<<<<<
>                                                          <
>     SKY/WX - SKY CONDITION/PRESENT WEATHER               <
>     TMP    - TEMPERATURE IN FAHRENHEIT                   <
>     DP     - DEWPOINT IN FAHRENHEIT                      <
>     RH     - RELATIVE HUMIDITY IN PERCENT                <
>     WIND   - DIRECTION AND SPEED IN MPH                  <
>     PRES   - MEAN SEA LEVEL PRESSURE IN INCHES OF HG     <
>     WCI    - WIND CHILL INDEX                            <
>     VSB    - VISIBILITY IN MILES                         <
>     HX     - HEAT INDEX                                  <
>     TC     - TEMPERATURE IN CELSIUS                      <
>     VRB    - VARIABLE WIND DIRECTION                     <
>                                                          <
>>>>>>>>>>>>>>>>>>>>>>>>>>>> KEY <<<<<<<<<<<<<<<<<<<<<<<<<<<




USA.gov is the U.S. government's official web portal to all federal, state and local government web resources and services.